Frankfort, KY

7:11 AM EDT on September 21, 2017 (GMT -0400)
Capital City

Weather History for KFFT - December, 2012

Change the Weather History Date:

Tuesday, December 4, 2012

  Actual Average Record
Temperature  
Mean Temperature 54 °F 39 °F  
Max Temperature 62 °F 48 °F 78 °F (1982)
Min Temperature 45 °F 29 °F 9 °F (1942)
Degree Days  
Heating Degree Days 11 26  
Month to date heating degree days 26 103  
Since 1 July heating degree days 1113 1014  
Cooling Degree Days 0 0  
Month to date cooling degree days 0 0  
Year to date cooling degree days 1310 1155  
Growing Degree Days 4 (Base 50)    
Moisture  
Dew Point 55 °F    
Average Humidity 86    
Maximum Humidity 100    
Minimum Humidity 72    
Precipitation  
Precipitation 0.78 in 0.13 in 2.30 in (1978)
Month to date precipitation 0.97 0.56  
Year to date precipitation 35.56 42.17  
Sea Level Pressure  
Sea Level Pressure 30.11 in    
Wind  
Wind Speed 9 mph (SW)    
Max Wind Speed 20 mph    
Max Gust Speed 26 mph    
Visibility 8 miles    
Events Rain , Thunderstorm    
T = Trace of Precipitation, MM = Missing Value Source: NWS Daily Summary

Daily Weather History Graph

Daily Weather History Graph

Search for Another Location

Airport or City:

Trip Planner

Search our weather history database for the weather conditions in past years. The results will help you decide how hot, cold, wet, or windy it might be!

Date:

Astronomy

Dec. 04, 2012 Rise Set
Actual Time 7:40 AM EST 5:19 PM EST
Civil Twilight 7:11 AM EST 5:48 PM EST
Nautical Twilight 6:38 AM EST 6:21 PM EST
Astronomical Twilight 6:06 AM EST 6:53 PM EST
Moon 11:02 PM EST (12/4) 11:37 AM EST (12/4)
Length of Visible Light 10h 37m
Length of Day
9h 38m
Waning Gibbous, 69% of the Moon is Illuminated
Dec 4
Waning Gibbous
Dec 6
Last Quarter
Dec 13
New
Dec 20
First Quarter
Dec 28
Full

Hourly Weather History & Observations

Time (EST) Temp. Windchill Dew Point Humidity Pressure Visibility Wind Dir Wind Speed Gust Speed Precip Events Conditions
1:53 AM 57.9 °F - 48.0 °F 70% 30.11 in 10.0 mi South 6.9 mph - N/A   Overcast
2:53 AM 57.9 °F - 48.9 °F 72% 30.11 in 10.0 mi South 5.8 mph - N/A   Overcast
3:53 AM 57.0 °F - 48.9 °F 74% 30.11 in 10.0 mi South 4.6 mph - N/A   Overcast
4:53 AM 57.9 °F - 48.9 °F 72% 30.10 in 10.0 mi South 5.8 mph - N/A   Overcast
6:53 AM 59.0 °F - 54.0 °F 83% 30.11 in 2.5 mi SSW 10.4 mph - 0.12 in Rain Heavy Rain
7:08 AM 60.8 °F - 53.6 °F 77% 30.11 in 10.0 mi South 8.1 mph - 0.06 in Rain Light Rain
7:53 AM 60.1 °F - 54.0 °F 80% 30.11 in 10.0 mi South 11.5 mph - 0.06 in   Overcast
8:22 AM 60.8 °F - 55.4 °F 82% 30.11 in 10.0 mi SSW 13.8 mph 20.7 mph N/A Thunderstorm Mostly Cloudy
8:44 AM 60.8 °F - 55.4 °F 82% 30.12 in 7.0 mi SSW 10.4 mph - 0.01 in Rain Light Rain
8:53 AM 60.1 °F - 55.0 °F 83% 30.11 in 8.0 mi SSW 10.4 mph - 0.01 in Rain Light Rain
9:53 AM 60.1 °F - 55.9 °F 86% 30.12 in 10.0 mi SSW 15.0 mph - 0.01 in Rain Light Rain
10:16 AM 59.0 °F - 57.2 °F 94% 30.13 in 10.0 mi SSW 13.8 mph - 0.01 in Rain Light Rain
10:53 AM 60.1 °F - 57.0 °F 90% 30.12 in 10.0 mi SSW 10.4 mph - 0.01 in   Overcast
11:11 AM 60.8 °F - 57.2 °F 88% 30.12 in 10.0 mi SSW 9.2 mph - N/A   Overcast
11:53 AM 61.0 °F - 57.9 °F 90% 30.10 in 10.0 mi SSW 13.8 mph 18.4 mph N/A   Overcast
12:30 PM 60.8 °F - 57.2 °F 88% 30.09 in 10.0 mi SSW 11.5 mph - N/A   Overcast
12:53 PM 62.1 °F - 59.0 °F 90% 30.08 in 10.0 mi SW 13.8 mph 20.7 mph 0.00 in   Overcast
1:07 PM 62.6 °F - 59.0 °F 88% 30.07 in 10.0 mi SSW 11.5 mph 19.6 mph N/A   Overcast
1:27 PM 60.8 °F - 59.0 °F 94% 30.07 in 1.8 mi SSW 9.2 mph - 0.04 in Rain Rain
1:40 PM 60.8 °F - 59.0 °F 94% 30.07 in 3.0 mi SSW 10.4 mph - 0.07 in Rain Light Rain
1:53 PM 61.0 °F - 59.0 °F 93% 30.06 in 4.0 mi SSW 11.5 mph - 0.08 in Rain Light Rain
2:02 PM 60.8 °F - 59.0 °F 94% 30.06 in 6.0 mi South 9.2 mph 18.4 mph 0.00 in Rain Light Rain
2:23 PM 60.8 °F - 59.0 °F 94% 30.05 in 2.5 mi South 12.7 mph 18.4 mph 0.03 in Rain Rain
2:31 PM 60.8 °F - 59.0 °F 94% 30.05 in 3.0 mi South 12.7 mph 21.9 mph 0.03 in Rain Light Rain
2:53 PM 61.0 °F - 59.0 °F 93% 30.04 in 10.0 mi SSW 15.0 mph 20.7 mph 0.03 in   Overcast
3:53 PM 62.1 °F - 59.0 °F 90% 30.04 in 10.0 mi SSW 11.5 mph - N/A   Overcast
4:11 PM 62.6 °F - 59.0 °F 88% 30.05 in 10.0 mi SSW 12.7 mph - N/A   Overcast
4:32 PM 62.6 °F - 59.0 °F 88% 30.05 in 10.0 mi SSW 12.7 mph - N/A   Overcast
4:53 PM 61.0 °F - 59.0 °F 93% 30.07 in 3.0 mi WSW 10.4 mph 20.7 mph 0.06 in Rain Rain
4:56 PM 60.8 °F - 59.0 °F 94% 30.07 in 3.0 mi SW 10.4 mph 20.7 mph 0.01 in Rain , Thunderstorm Thunderstorms and Rain
5:01 PM 60.8 °F - 59.0 °F 94% 30.07 in 2.5 mi WSW 8.1 mph 17.3 mph 0.04 in Rain , Thunderstorm Heavy Thunderstorms and Rain
5:09 PM 60.8 °F - 59.0 °F 94% 30.07 in 2.0 mi WSW 10.4 mph - 0.08 in Rain Heavy Rain
5:18 PM 60.8 °F - 57.2 °F 88% 30.08 in 4.0 mi SW 15.0 mph 20.7 mph 0.11 in Rain , Thunderstorm Thunderstorms and Rain
5:39 PM 57.2 °F - 57.2 °F 100% 30.08 in 4.0 mi SW 9.2 mph - 0.17 in Rain Rain
5:53 PM 57.9 °F - 57.0 °F 97% 30.08 in 4.0 mi SSW 10.4 mph - 0.22 in Rain Rain
6:22 PM 57.2 °F - 57.2 °F 100% 30.10 in 2.5 mi WSW 6.9 mph - 0.08 in Rain Light Rain
6:40 PM 57.2 °F - 57.2 °F 100% 30.10 in 10.0 mi WSW 6.9 mph - 0.13 in Rain Light Rain
6:53 PM 57.9 °F - 57.0 °F 97% 30.10 in 10.0 mi West 5.8 mph - 0.13 in   Overcast
7:00 PM 57.2 °F - 57.2 °F 100% 30.11 in 10.0 mi West 5.8 mph - N/A   Overcast
7:03 PM 57.2 °F - 57.2 °F 100% 30.12 in 10.0 mi NW 8.1 mph - N/A   Overcast
7:14 PM 55.4 °F - 53.6 °F 94% 30.13 in 10.0 mi NNW 15.0 mph 26.5 mph 0.00 in Rain Light Rain
7:23 PM 53.6 °F - 53.6 °F 100% 30.14 in 10.0 mi NNW 10.4 mph - 0.00 in Rain Light Rain
7:53 PM 52.0 °F - 50.0 °F 93% 30.16 in 6.0 mi NNW 10.4 mph 20.7 mph 0.00 in Rain Light Rain
8:21 PM 48.2 °F - 42.8 °F 82% 30.18 in 10.0 mi North 10.4 mph 20.7 mph 0.01 in   Overcast
8:53 PM 46.9 °F - 43.0 °F 86% 30.19 in 10.0 mi North 6.9 mph - 0.01 in   Overcast
9:02 PM 46.4 °F 41.9 °F 42.8 °F 87% 30.19 in 10.0 mi North 9.2 mph - 0.01 in Rain Light Rain
9:53 PM 46.0 °F 44.8 °F 42.1 °F 86% 30.21 in 10.0 mi NNE 3.5 mph - 0.02 in   Overcast
10:53 PM 46.0 °F - 43.0 °F 89% 30.22 in 10.0 mi Calm Calm - N/A   Overcast
11:53 PM 45.0 °F - 43.0 °F 93% 30.23 in 10.0 mi Calm Calm - N/A   Clear